This demonstration page uses our WeatherBlox Daily Observations layout. Learn more.

39.92423, -83.80882

Hourly Observations for December 6, 2017

Temp ( °F °C ) Dew Point ( °F °C ) Humidity (%) Winds ( mph kmh ) Pressure ( in mb ) Visibility ( mi km ) Precip ( " mm )
12:56 am 00:56 Clear 30 -1.1 22 -5.6 72 72 WSW 15 24 30.13 1020 10 16.0934 0 0
1:56 am 01:56 Clear 29 -1.7 22 -5.6 75 75 WSW 14 22 30.12 1020 10 16.0934 0 0
2:56 am 02:56 Clear 29 -1.7 22 -5.6 75 75 SW 14 22 30.13 1020 10 16.0934 0 0
3:56 am 03:56 Clear 28 -2.2 22 -5.6 78 78 SW 10 17 30.12 1020 10 16.0934 0 0
4:56 am 04:56 Clear 29 -1.7 22 -5.6 75 75 SW 12 19 30.11 1020 10 16.0934 0 0
5:56 am 05:56 Clear 28 -2.2 22 -5.6 78 78 SW 9 15 30.11 1020 10 16.0934 0 0
6:56 am 06:56 Clear 27 -2.8 22 -5.6 81 81 SW 9 15 30.11 1020 10 16.0934 0 0
7:56 am 07:56 Sunny 27 -2.8 22 -5.6 81 81 SSW 10 17 30.1 1019 10 16.0934 0 0
8:56 am 08:56 Sunny 30 -1.1 23 -5 75 75 SSW 10 17 30.1 1019 10 16.0934 0 0
9:56 am 09:56 Mostly Sunny 33 0.6 22 -5.6 64 64 SSW 13 20 30.08 1019 10 16.0934 0 0
10:56 am 10:56 Mostly Cloudy 36 2.2 22 -5.6 57 57 SSW 16 26 30.06 1018 10 16.0934 0 0
11:56 am 11:56 Mostly Cloudy 39 3.9 23 -5 53 53 WSW 24 39 30.04 1017 10 16.0934 0 0
12:56 pm 12:56 Sunny 40 4.4 25 -3.9 55 55 WSW 16 26 30.04 1017 10 16.0934 0 0
1:56 pm 13:56 Mostly Cloudy 40 4.4 25 -3.9 55 55 W 23 37 30.04 1017 10 16.0934 0 0
2:56 pm 14:56 Mostly Sunny 41 5 27 -2.8 57 57 WSW 17 28 30.04 1017 10 16.0934 0 0
3:56 pm 15:56 Partly Cloudy 40 4.4 25 -3.9 55 55 WSW 23 37 30.04 1017 10 16.0934 0 0
4:56 pm 16:56 Mostly Sunny 38 3.3 24 -4.4 57 57 W 18 30 30.05 1018 10 16.0934 0 0
5:56 pm 17:56 Mostly Clear 36 2.2 24 -4.4 62 62 W 10 17 30.07 1018 10 16.0934 0 0
6:56 pm 18:56 Mostly Cloudy 35 1.7 25 -3.9 67 67 W 10 17 30.09 1019 10 16.0934 0 0
7:56 pm 19:56 Mostly Clear 33 0.6 25 -3.9 72 72 W 9 15 30.11 1020 10 16.0934 0 0
8:56 pm 20:56 Mostly Clear 33 0.6 25 -3.9 72 72 W 10 17 30.12 1020 10 16.0934 0 0
9:56 pm 21:56 Clear 33 0.6 25 -3.9 72 72 W 14 22 30.12 1020 10 16.0934 0 0
10:56 pm 22:56 Clear 32 0 24 -4.4 73 73 WSW 13 20 30.11 1020 10 16.0934 0 0
11:56 pm 23:56 Cloudy 33 0.6 24 -4.4 70 70 WSW 10 17 30.11 1020 10 16.0934 0 0

Powered by AerisWeather